Weather History for Siren, WI

Change the Weather History Date:

Thursday, May 1, 2014

  Actual Average Record
Temperature  
Mean Temperature 41 °F -  
Max Temperature 46 °F - - ()
Min Temperature 36 °F - - ()
Degree Days  
Heating Degree Days 24    
Moisture  
Dew Point 37 °F    
Average Humidity 87    
Maximum Humidity 98    
Minimum Humidity 71    
Precipitation  
Precipitation 0.08 in - - ()
Sea Level Pressure  
Sea Level Pressure 29.75 in    
Wind  
Wind Speed 8 mph (NNW)    
Max Wind Speed 10 mph    
Max Gust Speed 17 mph    
Visibility 10 miles    
Events Rain    
T = Trace of Precipitation, MM = Missing Value Source: NWS Daily Summary

Daily Weather History Graph

Daily Weather History Graph

Search for Another Location

Airport:

Trip Planner

Search our weather history database for the weather conditions in past years. The results will help you decide how hot, cold, wet, or windy it might be!

Date:

Astronomy

May. 01, 2014 Rise Set
Actual Time 5:56 AM CDT 8:17 PM CDT
Civil Twilight 5:23 AM CDT 8:50 PM CDT
Nautical Twilight 4:42 AM CDT 9:31 PM CDT
Astronomical Twilight 3:56 AM CDT 10:18 PM CDT
Moon 7:41 AM CDT (5/1) 10:54 PM CDT (5/1)
Length of Visible Light 15h 26m
Length of Day
14h 20m
Waxing Crescent, 7% of the Moon is Illuminated
May 1
Waxing Crescent
May 6
First Quarter
May 14
Full
May 21
Last Quarter
May 28
New

Hourly Weather History & Observations

Time (CDT) Temp. Windchill Dew Point Humidity Pressure Visibility Wind Dir Wind Speed Gust Speed Precip Events Conditions
12:10 AM 37.0 °F 31.6 °F 36.1 °F 97% 29.73 in 10.0 mi North 6.9 mph - 0.01 in Rain Light Rain
12:30 AM 37.0 °F 31.0 °F 36.1 °F 97% 29.72 in 10.0 mi North 8.1 mph - 0.01 in   Light Drizzle
12:50 AM 36.9 °F 31.4 °F 36.0 °F 97% 29.72 in 10.0 mi North 6.9 mph - 0.01 in Rain Rain
1:10 AM 37.0 °F 31.6 °F 36.1 °F 97% 29.71 in 10.0 mi North 6.9 mph - 0.01 in   Drizzle
1:30 AM 37.0 °F 31.0 °F 36.5 °F 98% 29.71 in 10.0 mi North 8.1 mph - 0.01 in   Drizzle
1:50 AM 37.0 °F 31.0 °F 36.5 °F 98% 29.70 in 10.0 mi North 8.1 mph - 0.01 in   Light Drizzle
2:10 AM 37.2 °F 31.9 °F 36.5 °F 97% 29.70 in 10.0 mi North 6.9 mph - N/A   Drizzle
2:30 AM 37.4 °F 32.1 °F 36.5 °F 97% 29.69 in 10.0 mi North 6.9 mph - N/A   Drizzle
2:50 AM 37.4 °F 31.4 °F 36.7 °F 97% 29.69 in 7.0 mi North 8.1 mph - 0.01 in   Drizzle
3:10 AM 37.4 °F 32.1 °F 36.7 °F 97% 29.69 in 10.0 mi North 6.9 mph - N/A Rain Rain
3:30 AM 37.6 °F 31.6 °F 36.9 °F 97% 29.69 in 10.0 mi North 8.1 mph - 0.01 in Rain Rain
3:50 AM 37.6 °F 32.3 °F 36.9 °F 97% 29.69 in 10.0 mi North 6.9 mph - 0.01 in   Drizzle
4:10 AM 37.6 °F 32.3 °F 36.9 °F 97% 29.69 in 7.0 mi North 6.9 mph - 0.01 in Rain Light Rain
4:30 AM 37.6 °F 33.1 °F 36.9 °F 97% 29.68 in 7.0 mi North 5.8 mph - 0.02 in Rain Rain
4:50 AM 37.8 °F 31.3 °F 37.0 °F 97% 29.69 in 7.0 mi North 9.2 mph - 0.03 in Rain Light Rain
5:10 AM 37.6 °F 32.3 °F 36.9 °F 97% 29.69 in 10.0 mi North 6.9 mph - N/A   Drizzle
5:30 AM 37.6 °F 31.6 °F 36.9 °F 97% 29.68 in 10.0 mi North 8.1 mph - N/A   Drizzle
5:50 AM 37.6 °F 31.0 °F 36.9 °F 97% 29.69 in 10.0 mi North 9.2 mph - N/A   Drizzle
6:10 AM 37.6 °F 31.6 °F 36.9 °F 97% 29.69 in 10.0 mi North 8.1 mph - N/A   Light Drizzle
6:30 AM 37.6 °F 31.0 °F 36.9 °F 97% 29.69 in 10.0 mi North 9.2 mph - N/A   Light Drizzle
6:50 AM 37.6 °F 31.6 °F 36.9 °F 97% 29.70 in 10.0 mi North 8.1 mph - N/A   Drizzle
7:10 AM 37.8 °F 31.8 °F 36.9 °F 97% 29.70 in 10.0 mi North 8.1 mph - 0.01 in   Drizzle
7:30 AM 37.8 °F 30.7 °F 36.9 °F 97% 29.70 in 10.0 mi North 10.4 mph - 0.01 in   Drizzle
7:50 AM 38.3 °F 31.4 °F 37.4 °F 97% 29.70 in 10.0 mi North 10.4 mph - 0.01 in   Drizzle
8:10 AM 38.5 °F 32.7 °F 37.4 °F 96% 29.71 in 7.0 mi North 8.1 mph - N/A   Drizzle
8:30 AM 38.5 °F 32.1 °F 37.4 °F 96% 29.71 in 7.0 mi North 9.2 mph - N/A   Drizzle
8:50 AM 39.2 °F 33.0 °F 38.1 °F 96% 29.71 in 7.0 mi North 9.2 mph - 0.01 in Rain Light Rain
9:10 AM 39.2 °F 32.5 °F 38.1 °F 96% 29.72 in 7.0 mi North 10.4 mph 17.3 mph N/A Rain Light Rain
9:30 AM 39.9 °F 34.5 °F 38.7 °F 95% 29.72 in 5.0 mi North 8.1 mph - N/A   Drizzle
9:50 AM 40.1 °F 35.3 °F 38.8 °F 95% 29.72 in 7.0 mi North 6.9 mph - N/A   Light Drizzle
10:10 AM 40.1 °F 33.6 °F 38.8 °F 95% 29.72 in 7.0 mi North 10.4 mph - N/A   Drizzle
10:30 AM 40.6 °F 34.8 °F 39.0 °F 94% 29.73 in 10.0 mi North 9.2 mph - N/A   Overcast
10:50 AM 40.5 °F 34.6 °F 38.5 °F 93% 29.73 in 10.0 mi North 9.2 mph - N/A Rain Light Rain
11:10 AM 40.3 °F 33.9 °F 38.5 °F 93% 29.74 in 10.0 mi NNW 10.4 mph - N/A Rain Rain
11:30 AM 41.0 °F 35.2 °F 39.0 °F 93% 29.74 in 7.0 mi North 9.2 mph - N/A Rain Light Rain
11:50 AM 41.2 °F 36.0 °F 39.2 °F 93% 29.74 in 10.0 mi NNW 8.1 mph - N/A Rain Rain
12:10 PM 41.4 °F 35.2 °F 39.2 °F 92% 29.75 in 10.0 mi North 10.4 mph - N/A   Light Drizzle
12:30 PM 41.9 °F 35.9 °F 39.0 °F 90% 29.75 in 10.0 mi North 10.4 mph - N/A   Overcast
12:50 PM 42.1 °F 36.6 °F 38.8 °F 88% 29.76 in 10.0 mi North 9.2 mph - N/A   Overcast
1:10 PM 42.8 °F 38.0 °F 38.7 °F 85% 29.76 in 10.0 mi North 8.1 mph - N/A   Overcast
1:30 PM 42.8 °F 37.0 °F 38.1 °F 84% 29.76 in 10.0 mi North 10.4 mph - N/A   Overcast
1:50 PM 42.6 °F 37.8 °F 38.8 °F 86% 29.77 in 10.0 mi NNW 8.1 mph - N/A   Overcast
2:10 PM 42.8 °F 37.0 °F 38.5 °F 85% 29.77 in 10.0 mi North 10.4 mph - N/A   Overcast
2:30 PM 43.3 °F 38.6 °F 39.0 °F 85% 29.77 in 10.0 mi NNW 8.1 mph - N/A   Overcast
2:50 PM 43.7 °F 38.1 °F 38.5 °F 82% 29.78 in 10.0 mi NNW 10.4 mph - N/A   Overcast
3:10 PM 44.6 °F 39.2 °F 38.1 °F 78% 29.78 in 10.0 mi NNW 10.4 mph - N/A   Overcast
3:30 PM 45.0 °F 40.6 °F 37.9 °F 76% 29.78 in 10.0 mi NNW 8.1 mph - N/A   Overcast
4:10 PM 45.9 °F 41.2 °F 38.1 °F 74% 29.77 in 10.0 mi NNW 9.2 mph - N/A   Overcast
4:30 PM 45.7 °F 41.0 °F 37.4 °F 73% 29.77 in 10.0 mi North 9.2 mph - N/A   Overcast
4:50 PM 46.2 °F 41.7 °F 37.4 °F 71% 29.78 in 10.0 mi NNW 9.2 mph - N/A   Overcast
5:10 PM 46.0 °F 41.4 °F 37.6 °F 72% 29.77 in 10.0 mi NNW 9.2 mph - N/A   Overcast
5:30 PM 45.7 °F 40.6 °F 36.9 °F 71% 29.78 in 10.0 mi North 10.4 mph - N/A   Overcast
5:50 PM 45.5 °F 40.8 °F 36.7 °F 71% 29.78 in 10.0 mi North 9.2 mph - N/A   Overcast
6:10 PM 45.7 °F 41.5 °F 37.0 °F 72% 29.79 in 10.0 mi NNW 8.1 mph - N/A   Overcast
6:30 PM 45.5 °F 41.3 °F 36.5 °F 71% 29.79 in 10.0 mi North 8.1 mph - N/A   Overcast
6:50 PM 45.5 °F 43.2 °F 36.9 °F 72% 29.79 in 10.0 mi North 4.6 mph - N/A   Overcast
7:10 PM 45.5 °F 41.3 °F 36.9 °F 72% 29.80 in 10.0 mi NNW 8.1 mph - N/A   Overcast
7:30 PM 45.1 °F 42.8 °F 37.2 °F 74% 29.80 in 10.0 mi NW 4.6 mph - N/A   Overcast
7:50 PM 44.8 °F 41.0 °F 37.4 °F 75% 29.80 in 10.0 mi NNW 6.9 mph - N/A   Overcast
8:10 PM 44.8 °F 41.0 °F 36.9 °F 74% 29.80 in 10.0 mi NNW 6.9 mph - N/A   Overcast
8:30 PM 44.6 °F 42.2 °F 36.7 °F 74% 29.80 in 10.0 mi NNW 4.6 mph - N/A   Overcast
8:50 PM 43.9 °F 42.3 °F 37.0 °F 77% 29.80 in 10.0 mi NW 3.5 mph - N/A   Overcast
9:10 PM 43.7 °F 41.1 °F 37.4 °F 78% 29.81 in 10.0 mi NW 4.6 mph - N/A   Overcast
9:30 PM 43.7 °F 38.6 °F 37.2 °F 78% 29.81 in 10.0 mi NW 9.2 mph - N/A   Overcast
9:50 PM 44.1 °F 39.5 °F 36.1 °F 74% 29.81 in 10.0 mi NNW 8.1 mph - N/A   Overcast
10:10 PM 44.1 °F 40.1 °F 35.6 °F 72% 29.81 in 10.0 mi North 6.9 mph - N/A   Overcast
10:30 PM 43.7 °F 42.1 °F 35.8 °F 74% 29.81 in 10.0 mi NW 3.5 mph - N/A   Overcast
10:50 PM 43.2 °F - 36.1 °F 76% 29.80 in 10.0 mi Calm Calm - N/A   Overcast
11:10 PM 42.6 °F - 36.5 °F 79% 29.80 in 10.0 mi Calm Calm - N/A   Overcast
11:30 PM 42.8 °F - 36.5 °F 78% 29.79 in 10.0 mi Calm Calm - N/A   Overcast
11:50 PM 42.8 °F 41.1 °F 36.5 °F 78% 29.79 in 10.0 mi West 3.5 mph - N/A   Overcast